M I D A S
Marine Information and Data Acquisition System
Tripno 1261 of the Zeeleeuw from 2007-04-11 06:25:57 to 2007-04-11 16:50:56
Back to CruiseResearch ActivitiesStationsMapUnderway DataData graphs

EquipmentUnitsComments
TimeDGPSUTC
LatitudeDGPSDM.mWGS84
LongitudeDGPSDM.mWGS84
SpeedMeteo Stationm/sRelative wind speed
DirectionMeteo StationdegRelative wind direction
TemperatureMeteo Stationdeg CelciusAir temperature
PressureMeteo StationPaAtmospheric pressure
HumidityMeteo Station%Relative humidity
Missing or incorrect values are displayed as -999
Metereological data collected by the RV Zeeleeuw from 2007-04-11 06:25:11 to 2007-04-11 17:00:22
Time Latitude Longitude Speed Direction Temperature Pressure Humidity
2007-04-11 06:26 51°13.601 2°56.1 1.8 5 10.9 102460 74
2007-04-11 06:27 51°13.601 2°56.099 2.2 22 11 102460 74
2007-04-11 06:28 51°13.607 2°56.074 2 33 11 102460 73
2007-04-11 06:29 51°13.631 2°55.984 3.2 21 11 102460 73
2007-04-11 06:30 51°13.665 2°55.878 2.3 44 11 102460 73
2007-04-11 06:31 51°13.681 2°55.802 3.2 28 11 102460 73
2007-04-11 06:32 51°13.683 2°55.76 3 43 11.1 102460 72
2007-04-11 06:33 51°13.687 2°55.76 2.9 20 11.1 102470 72
2007-04-11 06:34 51°13.698 2°55.771 3.3 23 11.1 102470 72
2007-04-11 06:35 51°13.708 2°55.762 1.7 252 11.2 102470 72
2007-04-11 06:36 51°13.765 2°55.697 2.2 315 11.3 102470 71
2007-04-11 06:37 51°13.866 2°55.611 2 20 11.3 102470 71
2007-04-11 06:38 51°13.996 2°55.518 3.5 19 11.4 102470 71
2007-04-11 06:39 51°14.136 2°55.415 2.5 317 11.5 102460 70
2007-04-11 06:40 51°14.278 2°55.248 5.2 321 11.6 102460 69
2007-04-11 06:41 51°14.392 2°55.002 6.8 26 11.7 102450 68
2007-04-11 06:42 51°14.52 2°54.732 7.3 24 11.8 102460 66
2007-04-11 06:43 51°14.637 2°54.443 7.6 22 11.8 102450 67
2007-04-11 06:44 51°14.708 2°54.128 7.7 318 11.7 102450 68
2007-04-11 06:45 51°14.724 2°53.797 8.3 320 11.7 102460 69
2007-04-11 06:46 51°14.74 2°53.457 8.6 320 11.7 102460 70
2007-04-11 06:47 51°14.761 2°53.108 8.9 318 11.6 102460 71
2007-04-11 06:48 51°14.783 2°52.764 8.3 321 11.5 102460 73
2007-04-11 06:49 51°14.818 2°52.426 8.3 319 11.4 102460 75
2007-04-11 06:50 51°14.85 2°52.09 8 322 11.2 102460 76
2007-04-11 06:51 51°14.867 2°51.753 8 322 11.1 102460 78
2007-04-11 06:52 51°14.877 2°51.42 8.4 321 11 102460 79
2007-04-11 06:53 51°14.888 2°51.079 8.4 322 10.9 102460 80
2007-04-11 06:54 51°14.898 2°50.744 8.8 321 10.9 102460 81
2007-04-11 06:55 51°14.912 2°50.408 9 318 10.9 102450 82
2007-04-11 06:56 51°14.924 2°50.073 8.1 320 10.8 102460 81
2007-04-11 06:57 51°14.936 2°49.744 8.2 322 10.9 102460 81
2007-04-11 06:58 51°14.95 2°49.403 8.5 320 10.9 102470 81
2007-04-11 06:59 51°14.963 2°49.068 9 319 10.9 102460 81
2007-04-11 07:00 51°14.975 2°48.732 8.6 321 10.9 102470 81
2007-04-11 07:01 51°14.988 2°48.403 7.8 323 10.9 102470 82
2007-04-11 07:02 51°15.003 2°48.065 8.2 320 11 102470 83
2007-04-11 07:03 51°15.018 2°47.733 8.6 320 10.9 102460 82
2007-04-11 07:04 51°15.03 2°47.398 8.2 321 10.9 102470 83
2007-04-11 07:05 51°15.04 2°47.056 9.2 319 10.9 102460 83
2007-04-11 07:06 51°15.051 2°46.718 8.9 319 10.9 102460 83
2007-04-11 07:07 51°15.063 2°46.367 8.6 320 10.9 102460 83
2007-04-11 07:08 51°15.075 2°46.024 8.6 321 10.9 102470 83
2007-04-11 07:09 51°15.088 2°45.683 8.8 321 10.9 102470 83
2007-04-11 07:10 51°15.102 2°45.345 8.3 321 10.9 102470 83
2007-04-11 07:11 51°15.116 2°45.008 8.2 320 10.9 102470 83
2007-04-11 07:12 51°15.13 2°44.675 7.5 324 10.9 102470 83
2007-04-11 07:13 51°15.146 2°44.334 8.2 323 11 102470 83
2007-04-11 07:14 51°15.161 2°43.998 7.7 321 10.9 102480 83
2007-04-11 07:15 51°15.177 2°43.664 8.8 321 11 102470 83
2007-04-11 07:16 51°15.191 2°43.33 8.3 322 11 102470 83
2007-04-11 07:17 51°15.206 2°42.996 7.8 322 11 102480 83
2007-04-11 07:18 51°15.221 2°42.66 7.7 322 11 102480 84
2007-04-11 07:19 51°15.234 2°42.323 8 322 11 102480 84
2007-04-11 07:20 51°15.245 2°41.984 7 323 10.9 102480 84
2007-04-11 07:21 51°15.256 2°41.643 8.2 323 11 102480 84
2007-04-11 07:22 51°15.267 2°41.301 7.7 323 11 102480 84
2007-04-11 07:23 51°15.279 2°40.96 7.7 321 11 102480 85
2007-04-11 07:24 51°15.293 2°40.619 8.3 321 10.9 102490 85
2007-04-11 07:25 51°15.308 2°40.275 7.8 323 10.9 102490 84
2007-04-11 07:26 51°15.323 2°39.933 8.1 321 10.9 102490 85
2007-04-11 07:27 51°15.339 2°39.596 8 320 10.9 102480 84
2007-04-11 07:28 51°15.355 2°39.261 7.5 321 10.9 102480 84
2007-04-11 07:29 51°15.369 2°38.924 7.6 321 10.9 102480 83
2007-04-11 07:30 51°15.378 2°38.583 7 322 10.9 102480 83
2007-04-11 07:31 51°15.389 2°38.242 7 322 10.9 102480 83
2007-04-11 07:32 51°15.401 2°37.903 8.7 320 10.9 102480 83
2007-04-11 07:33 51°15.412 2°37.563 7.8 320 10.9 102480 83
2007-04-11 07:34 51°15.425 2°37.223 7.4 322 10.9 102480 83
2007-04-11 07:35 51°15.447 2°36.883 7.3 322 10.9 102490 83
2007-04-11 07:36 51°15.469 2°36.543 8.1 320 10.9 102490 83
2007-04-11 07:37 51°15.493 2°36.202 8.4 319 10.9 102480 82
2007-04-11 07:38 51°15.518 2°35.861 7.4 320 11 102480 82
2007-04-11 07:39 51°15.541 2°35.517 8.3 321 11 102490 82
2007-04-11 07:40 51°15.568 2°35.17 7.9 323 11 102480 81
2007-04-11 07:41 51°15.595 2°34.825 8.2 324 11.1 102480 81
2007-04-11 07:42 51°15.625 2°34.479 8.1 325 11.1 102490 81
2007-04-11 07:43 51°15.655 2°34.134 6.8 328 11.1 102490 82
2007-04-11 07:44 51°15.684 2°33.791 6.5 331 11 102500 82
2007-04-11 07:45 51°15.714 2°33.45 6.4 332 10.9 102500 83
2007-04-11 07:46 51°15.733 2°33.102 7.5 329 10.8 102500 84
2007-04-11 07:47 51°15.754 2°32.75 7.7 328 10.8 102500 85
2007-04-11 07:48 51°15.776 2°32.398 7.7 333 10.7 102500 86
2007-04-11 07:49 51°15.776 2°32.044 7.4 340 10.7 102490 86
2007-04-11 07:50 51°15.679 2°31.757 5.4 343 10.6 102500 87
2007-04-11 07:51 51°15.51 2°31.564 4.3 344 10.5 102500 88
2007-04-11 07:52 51°15.337 2°31.362 4.8 343 10.5 102510 90
2007-04-11 07:53 51°15.169 2°31.156 4.6 343 10.4 102510 91
2007-04-11 07:54 51°15.004 2°30.941 5.5 334 10.3 102510 91
2007-04-11 07:55 51°14.838 2°30.722 6.8 331 10.3 102500 92
2007-04-11 07:56 51°14.674 2°30.506 7.2 330 10.3 102500 92
2007-04-11 07:57 51°14.539 2°30.344 5.4 331 10.3 102500 92
2007-04-11 07:58 51°14.458 2°30.266 2.3 326 10.4 102510 92
2007-04-11 07:59 51°14.459 2°30.271 0.4 23 10.5 102510 92
2007-04-11 08:00 51°14.465 2°30.283 1.1 30 10.7 102510 92
2007-04-11 08:01 51°14.47 2°30.293 1.8 36 10.7 102510 92
2007-04-11 08:02 51°14.471 2°30.291 2.3 33 10.7 102520 92
2007-04-11 08:03 51°14.466 2°30.267 2.5 32 10.7 102510 91
2007-04-11 08:04 51°14.452 2°30.23 1.4 36 10.6 102510 91
2007-04-11 08:05 51°14.434 2°30.192 1.7 32 10.6 102510 91
2007-04-11 08:06 51°14.42 2°30.159 1.9 25 10.6 102510 91
2007-04-11 08:07 51°14.413 2°30.143 1.8 36 10.6 102510 91
2007-04-11 08:08 51°14.428 2°30.059 4 328 10.6 102510 91
2007-04-11 08:09 51°14.559 2°29.986 4.3 325 10.5 102510 90
2007-04-11 08:10 51°14.634 2°30.1 2.2 343 10.6 102510 89
2007-04-11 08:11 51°14.579 2°30.201 3.1 349 10.7 102510 88
2007-04-11 08:12 51°14.502 2°30.204 3.1 337 10.8 102510 87
2007-04-11 08:13 51°14.442 2°30.2 3.8 343 10.9 102510 85
2007-04-11 08:14 51°14.41 2°30.191 1.7 356 10.9 102510 83
2007-04-11 08:15 51°14.393 2°30.131 3.4 335 11 102520 81
2007-04-11 08:16 51°14.485 2°30.01 7.3 335 11 102510 81
2007-04-11 08:17 51°14.617 2°30.069 5.1 315 11.1 102510 81
2007-04-11 08:18 51°14.564 2°30.221 1.5 326 11.1 102520 80
2007-04-11 08:19 51°14.465 2°30.276 0.8 358 11.3 102520 80
2007-04-11 08:20 51°14.416 2°30.25 2 20 11.4 102520 79
2007-04-11 08:21 51°14.43 2°30.284 1.7 24 11.3 102520 78
2007-04-11 08:22 51°14.43 2°30.24 2.4 340 11.3 102520 78
2007-04-11 08:23 51°14.44 2°30.155 2.1 339 11.3 102520 78
2007-04-11 08:24 51°14.438 2°30.095 1.5 345 11.3 102520 78
2007-04-11 08:25 51°14.427 2°30.041 2.5 345 11.3 102520 77
2007-04-11 08:26 51°14.347 2°29.943 1.8 339 11.2 102520 77
2007-04-11 08:27 51°14.314 2°30.063 3.4 318 11.2 102520 78
2007-04-11 08:28 51°14.386 2°30.136 3.9 317 11.2 102520 78
2007-04-11 08:29 51°14.431 2°30.203 3 19 11.2 102520 78
2007-04-11 08:30 51°14.456 2°30.259 3.1 22 11.3 102520 78
2007-04-11 08:31 51°14.472 2°30.375 3.5 29 11.3 102520 78
2007-04-11 08:32 51°14.538 2°30.443 3.9 333 11.3 102520 78
2007-04-11 08:33 51°14.582 2°30.352 2.9 352 11.3 102520 77
2007-04-11 08:34 51°14.532 2°30.28 1.2 343 11.3 102520 77
2007-04-11 08:35 51°14.469 2°30.221 1 350 11.3 102520 77
2007-04-11 08:36 51°14.415 2°30.172 1.4 3 11.3 102530 77
2007-04-11 08:37 51°14.395 2°30.109 1.6 3 11.3 102530 77
2007-04-11 08:38 51°14.416 2°30.027 3.2 344 11.2 102520 77
2007-04-11 08:39 51°14.524 2°30.012 6.7 333 11.3 102520 77
2007-04-11 08:40 51°14.618 2°30.144 3.9 318 11.3 102530 77
2007-04-11 08:41 51°14.562 2°30.225 1.5 22 11.4 102530 78
2007-04-11 08:42 51°14.489 2°30.231 0.8 25 11.5 102530 78
2007-04-11 08:43 51°14.436 2°30.194 0.7 21 11.7 102530 79
2007-04-11 08:44 51°14.394 2°30.185 0.4 260 11.9 102520 79
2007-04-11 08:45 51°14.354 2°30.177 0.8 260 12 102530 78
2007-04-11 08:46 51°14.316 2°30.156 0.3 25 12.1 102530 78
2007-04-11 08:47 51°14.295 2°30.122 0.7 39 12.2 102530 77
2007-04-11 08:48 51°14.281 2°30.093 0.4 41 12.2 102530 76
2007-04-11 08:49 51°14.271 2°30.071 0.4 38 12.1 102530 75
2007-04-11 08:50 51°14.262 2°30.055 0.1 34 12 102530 75
2007-04-11 08:51 51°14.255 2°30.044 0.1 28 12.1 102530 75
2007-04-11 08:52 51°14.25 2°30.038 0.5 22 12.3 102530 75
2007-04-11 08:53 51°14.247 2°30.032 0.7 23 12.5 102530 76
2007-04-11 08:54 51°14.245 2°30.029 0.8 27 12.8 102530 76
2007-04-11 08:55 51°14.245 2°30.027 0.8 21 12.9 102530 75
2007-04-11 08:56 51°14.245 2°30.025 0.9 269 13 102530 73
2007-04-11 08:57 51°14.245 2°30.024 1 262 13 102530 72
2007-04-11 08:58 51°14.247 2°30.021 1.6 255 13 102530 71
2007-04-11 08:59 51°14.249 2°30.017 1.3 251 13 102530 70
2007-04-11 09:00 51°14.251 2°30.012 1.6 248 13 102530 71
2007-04-11 09:01 51°14.252 2°30.029 2.1 315 13.1 102540 71
2007-04-11 09:02 51°14.273 2°30.073 2.6 333 13 102540 69
2007-04-11 09:03 51°14.317 2°30.108 2.5 336 12.8 102530 69
2007-04-11 09:04 51°14.355 2°30.126 2.2 339 12.6 102530 69
2007-04-11 09:05 51°14.387 2°30.131 2.2 345 12.4 102530 70
2007-04-11 09:06 51°14.414 2°30.128 1.8 350 12.2 102530 71
2007-04-11 09:07 51°14.436 2°30.121 1.9 348 12 102530 74
2007-04-11 09:08 51°14.454 2°30.114 1.7 350 11.8 102530 75
2007-04-11 09:09 51°14.471 2°30.107 1.6 353 11.6 102530 77
2007-04-11 09:10 51°14.485 2°30.1 1.4 357 11.5 102530 78
2007-04-11 09:11 51°14.498 2°30.093 1.2 354 11.4 102530 78
2007-04-11 09:12 51°14.51 2°30.089 1.3 355 11.3 102530 79
2007-04-11 09:13 51°14.521 2°30.087 1.3 354 11.3 102530 80
2007-04-11 09:14 51°14.53 2°30.087 1.4 351 11.3 102530 80
2007-04-11 09:15 51°14.538 2°30.086 1.4 346 11.3 102530 81
2007-04-11 09:16 51°14.546 2°30.087 1.7 338 11.3 102530 81
2007-04-11 09:17 51°14.552 2°30.088 1.6 337 11.3 102530 82
2007-04-11 09:18 51°14.557 2°30.089 1.9 337 11.3 102530 82
2007-04-11 09:19 51°14.562 2°30.087 1.9 337 11.4 102540 82
2007-04-11 09:20 51°14.567 2°30.085 1.7 337 11.4 102540 82
2007-04-11 09:21 51°14.571 2°30.083 1.4 337 11.4 102540 83
2007-04-11 09:22 51°14.574 2°30.081 1.3 329 11.5 102540 83
2007-04-11 09:23 51°14.577 2°30.077 1.4 324 11.6 102540 83
2007-04-11 09:24 51°14.579 2°30.073 1.2 317 11.7 102530 83
2007-04-11 09:25 51°14.582 2°30.069 1.3 323 11.7 102530 83
2007-04-11 09:26 51°14.583 2°30.066 1.5 326 11.8 102530 83
2007-04-11 09:27 51°14.585 2°30.061 1.6 28 11.8 102530 82
2007-04-11 09:28 51°14.586 2°30.056 1.7 22 11.8 102530 82
2007-04-11 09:29 51°14.587 2°30.051 1.8 20 11.8 102530 82
2007-04-11 09:30 51°14.586 2°30.045 2.1 19 11.8 102540 82
2007-04-11 09:31 51°14.585 2°30.039 2.6 250 11.8 102540 82
2007-04-11 09:32 51°14.584 2°30.032 2.6 257 11.8 102540 82
2007-04-11 09:33 51°14.583 2°30.024 2.1 258 11.8 102540 82
2007-04-11 09:34 51°14.581 2°30.016 1.6 260 11.7 102540 82
2007-04-11 09:35 51°14.58 2°30.008 1.3 264 11.7 102540 82
2007-04-11 09:36 51°14.579 2°30 1.4 270 11.6 102540 82
2007-04-11 09:37 51°14.574 2°29.993 1.3 266 11.6 102530 83
2007-04-11 09:38 51°14.555 2°30.003 1.9 18 11.5 102530 83
2007-04-11 09:39 51°14.531 2°30.029 2.7 22 11.5 102530 83
2007-04-11 09:40 51°14.511 2°30.052 2.3 21 11.6 102530 84
2007-04-11 09:41 51°14.498 2°30.066 2.3 20 11.6 102540 84
2007-04-11 09:42 51°14.49 2°30.076 2.4 20 11.5 102530 84
2007-04-11 09:43 51°14.482 2°30.084 2.3 25 11.5 102530 84
2007-04-11 09:44 51°14.477 2°30.088 2.3 25 11.5 102540 85
2007-04-11 09:45 51°14.472 2°30.089 2.2 27 11.5 102530 85
2007-04-11 09:46 51°14.466 2°30.089 2.3 23 11.5 102530 85
2007-04-11 09:47 51°14.46 2°30.087 2 26 11.5 102540 85
2007-04-11 09:48 51°14.454 2°30.084 2.1 24 11.5 102540 85
2007-04-11 09:49 51°14.448 2°30.079 2 19 11.5 102540 85
2007-04-11 09:50 51°14.442 2°30.075 2.1 249 11.6 102540 85
2007-04-11 09:51 51°14.435 2°30.069 1.8 21 11.6 102540 86
2007-04-11 09:52 51°14.428 2°30.061 1.9 251 11.6 102540 86
2007-04-11 09:53 51°14.421 2°30.054 1.8 253 11.6 102540 86
2007-04-11 09:54 51°14.414 2°30.045 2.2 255 11.6 102540 86
2007-04-11 09:55 51°14.407 2°30.034 1.9 256 11.6 102540 86
2007-04-11 09:56 51°14.399 2°30.023 1.8 258 11.6 102540 86
2007-04-11 09:57 51°14.391 2°30.011 1.6 261 11.5 102540 86
2007-04-11 09:58 51°14.384 2°29.998 1.2 264 11.5 102540 86
2007-04-11 09:59 51°14.377 2°29.986 1.1 263 11.5 102550 86
2007-04-11 10:00 51°14.369 2°29.975 2.2 260 11.4 102540 87
2007-04-11 10:01 51°14.362 2°29.963 1.8 259 11.4 102540 87
2007-04-11 10:02 51°14.354 2°29.95 1.7 260 11.4 102540 87
2007-04-11 10:03 51°14.347 2°29.937 1.9 259 11.4 102540 87
2007-04-11 10:04 51°14.34 2°29.925 1.7 259 11.4 102540 88
2007-04-11 10:05 51°14.333 2°29.912 2.1 259 11.3 102540 88
2007-04-11 10:06 51°14.325 2°29.898 1.4 261 11.3 102540 88
2007-04-11 10:07 51°14.318 2°29.885 1.4 262 11.3 102540 88
2007-04-11 10:08 51°14.31 2°29.871 1.3 262 11.3 102540 88
2007-04-11 10:09 51°14.303 2°29.857 1.3 264 11.3 102540 88
2007-04-11 10:10 51°14.295 2°29.843 1.5 265 11.3 102540 88
2007-04-11 10:11 51°14.28 2°29.84 2.5 244 11.2 102540 89
2007-04-11 10:12 51°14.28 2°29.895 4 323 11.2 102540 89
2007-04-11 10:13 51°14.315 2°29.966 4.2 327 11.2 102530 89
2007-04-11 10:14 51°14.353 2°30.014 3.5 329 11.2 102530 89
2007-04-11 10:15 51°14.388 2°30.042 3.3 329 11.2 102540 90
2007-04-11 10:16 51°14.417 2°30.054 2.6 334 11.2 102540 90
2007-04-11 10:17 51°14.441 2°30.054 2.5 338 11.2 102540 90
2007-04-11 10:18 51°14.46 2°30.048 2.4 339 11.2 102530 90
2007-04-11 10:19 51°14.476 2°30.036 2.4 342 11.2 102540 90
2007-04-11 10:20 51°14.49 2°30.021 2.4 345 11.1 102540 90
2007-04-11 10:21 51°14.501 2°30.003 2.6 349 11 102540 90
2007-04-11 10:22 51°14.51 2°29.983 2.5 349 10.9 102540 91
2007-04-11 10:23 51°14.518 2°29.964 2.5 348 10.8 102540 91
2007-04-11 10:24 51°14.527 2°29.945 2.9 348 10.8 102540 92
2007-04-11 10:25 51°14.569 2°29.929 3.9 344 10.7 102540 92
2007-04-11 10:26 51°14.639 2°29.919 4.4 342 10.7 102540 93
2007-04-11 10:27 51°14.707 2°29.91 3.8 346 10.7 102530 93
2007-04-11 10:28 51°14.755 2°29.89 3.3 350 10.6 102530 93
2007-04-11 10:29 51°14.79 2°29.885 3.1 340 10.6 102540 93
2007-04-11 10:30 51°14.813 2°29.897 3.1 330 10.6 102530 94
2007-04-11 10:31 51°14.828 2°29.915 3.2 329 10.7 102530 94
2007-04-11 10:32 51°14.842 2°29.936 3.4 329 10.8 102530 94
2007-04-11 10:33 51°14.899 2°30.043 7.7 332 10.8 102530 94
2007-04-11 10:34 51°15.03 2°30.282 9.2 332 10.8 102520 94
2007-04-11 10:35 51°15.17 2°30.54 9 332 10.8 102520 93
2007-04-11 10:36 51°15.311 2°30.799 9.1 332 10.9 102520 93
2007-04-11 10:37 51°15.456 2°31.061 9.2 331 10.9 102520 93
2007-04-11 10:38 51°15.595 2°31.317 9.7 332 10.9 102520 93
2007-04-11 10:39 51°15.688 2°31.631 9.2 328 10.9 102510 93
2007-04-11 10:40 51°15.742 2°31.956 8.9 327 10.8 102520 93
2007-04-11 10:41 51°15.764 2°32.286 8.4 324 10.9 102520 93
2007-04-11 10:42 51°15.687 2°32.564 7.1 319 10.9 102530 93
2007-04-11 10:43 51°15.519 2°32.741 7 321 10.9 102530 93
2007-04-11 10:44 51°15.353 2°32.945 7.4 322 11 102520 92
2007-04-11 10:45 51°15.183 2°33.159 7.7 321 11 102520 92
2007-04-11 10:46 51°15 2°33.336 5.8 320 11.1 102520 92
2007-04-11 10:47 51°14.826 2°33.368 4.3 319 11.2 102520 92
2007-04-11 10:48 51°14.685 2°33.372 2 27 11.2 102520 92
2007-04-11 10:49 51°14.642 2°33.235 1.5 354 11.3 102530 92
2007-04-11 10:50 51°14.635 2°33.062 2.7 353 11.2 102530 91
2007-04-11 10:51 51°14.688 2°32.92 3.7 350 11.1 102520 91
2007-04-11 10:52 51°14.771 2°32.873 4.4 339 11 102520 91
2007-04-11 10:53 51°14.84 2°32.902 4.3 343 11 102520 91
2007-04-11 10:54 51°14.893 2°32.942 4.2 334 11 102520 92
2007-04-11 10:55 51°14.939 2°32.999 4.3 333 11.1 102520 91
2007-04-11 10:56 51°14.982 2°33.044 3.7 343 11.1 102520 91
2007-04-11 10:57 51°15.015 2°33.038 2.8 354 11.1 102520 91
2007-04-11 10:58 51°15.026 2°33.015 2.4 10 11 102520 91
2007-04-11 10:59 51°15.018 2°32.997 2.2 28 11 102530 92
2007-04-11 11:00 51°14.999 2°32.991 2.3 33 11 102530 92
2007-04-11 11:01 51°14.975 2°32.993 2.4 36 11 102530 92
2007-04-11 11:02 51°14.947 2°32.999 2 35 11.1 102520 92
2007-04-11 11:03 51°14.919 2°33.003 2.4 35 11.1 102520 92
2007-04-11 11:04 51°14.907 2°32.987 2 21 11.1 102520 92
2007-04-11 11:05 51°14.915 2°32.961 2.3 1 11.1 102530 92
2007-04-11 11:06 51°14.935 2°32.956 2.9 341 11.1 102520 92
2007-04-11 11:07 51°14.952 2°32.975 3.1 336 11.1 102520 92
2007-04-11 11:08 51°14.958 2°33.017 3.2 324 11.1 102520 92
2007-04-11 11:09 51°14.967 2°33.048 2.8 334 11.2 102510 92
2007-04-11 11:10 51°14.97 2°33.056 2.4 326 11.2 102510 92
2007-04-11 11:11 51°14.967 2°33.057 2.3 322 11.3 102520 92
2007-04-11 11:12 51°14.962 2°33.054 2.5 321 11.4 102510 92
2007-04-11 11:13 51°14.955 2°33.049 2.6 316 11.5 102520 91
2007-04-11 11:14 51°14.948 2°33.041 2.5 315 11.5 102520 91
2007-04-11 11:15 51°14.941 2°33.03 2.4 319 11.5 102520 91
2007-04-11 11:16 51°14.934 2°33.013 2.3 318 11.6 102520 90
2007-04-11 11:17 51°14.927 2°32.988 2.1 20 11.6 102520 90
2007-04-11 11:18 51°14.922 2°32.956 2.1 21 11.7 102510 89
2007-04-11 11:19 51°14.912 2°32.951 2.5 322 11.7 102510 89
2007-04-11 11:20 51°14.915 2°32.966 2.9 341 11.7 102520 88
2007-04-11 11:21 51°14.939 2°32.98 3.4 341 11.6 102510 87
2007-04-11 11:22 51°14.961 2°33.007 3.1 332 11.5 102510 87
2007-04-11 11:23 51°14.964 2°33.031 2.6 325 11.5 102510 87
2007-04-11 11:24 51°14.961 2°33.034 2.4 328 11.6 102510 87
2007-04-11 11:25 51°14.958 2°33.028 2.3 332 11.7 102510 86
2007-04-11 11:26 51°14.956 2°33.021 2.2 332 11.8 102520 86
2007-04-11 11:27 51°14.954 2°33.011 2.1 334 11.8 102510 86
2007-04-11 11:28 51°14.952 2°32.999 1.8 334 11.9 102510 86
2007-04-11 11:29 51°14.95 2°32.986 2.1 339 12 102510 85
2007-04-11 11:30 51°14.948 2°32.971 2.1 337 11.9 102510 84
2007-04-11 11:31 51°14.945 2°32.955 1.9 336 11.9 102510 84
2007-04-11 11:32 51°14.942 2°32.938 1.8 339 11.9 102510 83
2007-04-11 11:33 51°14.938 2°32.92 1.9 340 11.8 102510 83
2007-04-11 11:34 51°14.934 2°32.901 2 339 11.9 102510 83
2007-04-11 11:35 51°14.931 2°32.882 2 335 11.9 102510 83
2007-04-11 11:36 51°14.927 2°32.862 2.1 333 11.9 102510 83
2007-04-11 11:37 51°14.922 2°32.841 2.1 331 12 102510 82
2007-04-11 11:38 51°14.917 2°32.821 2 329 12.1 102500 82
2007-04-11 11:39 51°14.912 2°32.8 1.9 330 12.2 102510 82
2007-04-11 11:40 51°14.907 2°32.78 1.8 331 12.2 102510 82
2007-04-11 11:41 51°14.901 2°32.759 2.1 328 12.4 102500 82
2007-04-11 11:42 51°14.896 2°32.736 2.1 328 12.5 102510 82
2007-04-11 11:43 51°14.89 2°32.714 2.2 326 12.6 102500 81
2007-04-11 11:44 51°14.886 2°32.691 2.1 323 12.6 102500 80
2007-04-11 11:45 51°14.88 2°32.667 2 324 12.7 102500 79
2007-04-11 11:46 51°14.874 2°32.641 2.1 324 12.7 102500 78
2007-04-11 11:47 51°14.867 2°32.616 2.2 324 12.7 102500 78
2007-04-11 11:48 51°14.859 2°32.589 2.2 320 12.7 102500 78
2007-04-11 11:49 51°14.852 2°32.565 2.3 320 12.7 102500 78
2007-04-11 11:50 51°14.849 2°32.645 6.1 324 12.6 102500 77
2007-04-11 11:51 51°14.782 2°32.925 8.6 323 12.5 102490 79
2007-04-11 11:52 51°14.689 2°33.231 8.3 324 12.4 102490 80
2007-04-11 11:53 51°14.599 2°33.542 8.4 324 12.3 102490 81
2007-04-11 11:54 51°14.512 2°33.854 8.5 324 12.2 102490 81
2007-04-11 11:55 51°14.427 2°34.159 8.3 324 12.2 102480 82
2007-04-11 11:56 51°14.339 2°34.476 8.5 325 12.1 102490 82
2007-04-11 11:57 51°14.255 2°34.788 8.2 325 12 102490 83
2007-04-11 11:58 51°14.171 2°35.097 8.5 323 12 102490 84
2007-04-11 11:59 51°14.09 2°35.4 8.4 323 12 102490 84
2007-04-11 12:00 51°14.009 2°35.698 8.5 324 12 102480 85
2007-04-11 12:01 51°13.913 2°36 8.4 324 12 102490 85
2007-04-11 12:02 51°13.816 2°36.296 8.2 324 12 102480 85
2007-04-11 12:03 51°13.72 2°36.591 8.2 324 12 102480 85
2007-04-11 12:04 51°13.626 2°36.882 8.6 323 12.1 102480 85
2007-04-11 12:05 51°13.52 2°37.174 7.8 320 12.1 102480 85
2007-04-11 12:06 51°13.349 2°37.344 6 321 12.1 102490 85
2007-04-11 12:07 51°13.124 2°37.367 5.9 321 12.2 102490 85
2007-04-11 12:08 51°12.892 2°37.392 5.8 322 12.2 102490 85
2007-04-11 12:09 51°12.663 2°37.419 5.8 321 12.2 102480 85
2007-04-11 12:10 51°12.431 2°37.44 5.7 321 12.3 102480 84
2007-04-11 12:11 51°12.224 2°37.273 4.6 329 12.4 102480 84
2007-04-11 12:12 51°12.036 2°37.023 4.6 328 12.4 102480 83
2007-04-11 12:13 51°11.825 2°36.844 4.8 324 12.3 102480 83
2007-04-11 12:14 51°11.606 2°36.687 4.7 324 12.4 102480 83
2007-04-11 12:15 51°11.385 2°36.533 4.6 326 12.4 102480 83
2007-04-11 12:16 51°11.164 2°36.378 5 327 12.4 102480 83
2007-04-11 12:17 51°10.943 2°36.226 4.8 325 12.4 102480 82
2007-04-11 12:18 51°10.722 2°36.074 4.7 323 12.5 102480 83
2007-04-11 12:19 51°10.501 2°35.925 4.6 322 12.5 102480 82
2007-04-11 12:20 51°10.276 2°35.823 4.8 321 12.5 102480 82
2007-04-11 12:21 51°10.041 2°35.779 5 322 12.5 102480 82
2007-04-11 12:22 51°9.805 2°35.72 4.9 322 12.5 102470 82
2007-04-11 12:23 51°9.573 2°35.661 5.1 322 12.5 102470 82
2007-04-11 12:24 51°9.35 2°35.531 5.1 325 12.6 102470 82
2007-04-11 12:25 51°9.132 2°35.388 4.6 325 12.6 102470 82
2007-04-11 12:26 51°8.908 2°35.243 4.1 325 12.6 102470 81
2007-04-11 12:27 51°8.768 2°35.161 1.7 19 12.7 102470 81
2007-04-11 12:28 51°8.702 2°35.138 3.1 255 12.8 102470 81
2007-04-11 12:29 51°8.677 2°35.131 2.7 253 12.9 102470 80
2007-04-11 12:30 51°8.658 2°35.12 2.5 250 12.9 102470 80
2007-04-11 12:31 51°8.643 2°35.106 3 247 13 102470 79
2007-04-11 12:32 51°8.63 2°35.089 3.4 245 13 102470 79
2007-04-11 12:33 51°8.618 2°35.068 3.5 19 13.1 102470 78
2007-04-11 12:34 51°8.606 2°35.045 3.1 20 13.1 102470 78
2007-04-11 12:35 51°8.595 2°35.02 3.4 26 13.1 102470 77
2007-04-11 12:36 51°8.585 2°34.993 3.4 24 13.1 102470 77
2007-04-11 12:37 51°8.573 2°34.965 2.9 30 13.1 102470 76
2007-04-11 12:38 51°8.566 2°34.955 3.8 321 13.1 102460 76
2007-04-11 12:39 51°8.575 2°34.954 4 336 13 102460 75
2007-04-11 12:40 51°8.603 2°34.952 4.5 334 12.9 102460 75
2007-04-11 12:41 51°8.637 2°34.96 4.6 330 12.8 102460 75
2007-04-11 12:42 51°8.756 2°35.027 9.5 333 12.8 102450 75
2007-04-11 12:43 51°8.951 2°35.122 10.3 334 12.7 102450 76
2007-04-11 12:44 51°9.152 2°35.224 10.5 333 12.6 102450 77
2007-04-11 12:45 51°9.35 2°35.32 9.9 334 12.5 102460 78
2007-04-11 12:46 51°9.55 2°35.418 10.5 334 12.4 102450 80
2007-04-11 12:47 51°9.751 2°35.514 10.7 333 12.2 102450 81
2007-04-11 12:48 51°9.95 2°35.611 10.4 333 12.1 102450 82
2007-04-11 12:49 51°10.146 2°35.719 10.4 335 12 102450 83
2007-04-11 12:50 51°10.341 2°35.83 10.8 335 11.9 102450 83
2007-04-11 12:51 51°10.541 2°35.942 10.8 335 11.9 102450 83
2007-04-11 12:52 51°10.732 2°36.059 11 334 11.8 102450 83
2007-04-11 12:53 51°10.92 2°36.189 10.7 334 11.8 102450 84
2007-04-11 12:54 51°11.108 2°36.32 10.3 335 11.8 102450 84
2007-04-11 12:55 51°11.295 2°36.45 10.5 334 11.8 102450 85
2007-04-11 12:56 51°11.481 2°36.584 10.6 335 11.8 102450 85
2007-04-11 12:57 51°11.667 2°36.719 10.5 335 11.7 102450 85
2007-04-11 12:58 51°11.854 2°36.855 10.2 336 11.7 102450 85
2007-04-11 12:59 51°12.04 2°36.993 10.9 335 11.7 102450 85
2007-04-11 13:00 51°12.228 2°37.131 10.6 335 11.7 102450 85
2007-04-11 13:01 51°12.416 2°37.268 10.7 335 11.7 102450 85
2007-04-11 13:02 51°12.582 2°37.386 8.9 335 11.7 102450 86
2007-04-11 13:03 51°12.7 2°37.468 7.9 336 11.7 102450 85
2007-04-11 13:04 51°12.799 2°37.533 7.4 337 11.8 102450 85
2007-04-11 13:05 51°12.863 2°37.568 6.4 337 11.8 102450 85
2007-04-11 13:06 51°12.906 2°37.594 6 337 11.8 102450 85
2007-04-11 13:07 51°12.933 2°37.615 5.4 331 11.8 102460 85
2007-04-11 13:08 51°12.944 2°37.613 4.9 346 11.8 102450 84
2007-04-11 13:09 51°12.95 2°37.593 4.6 353 11.7 102450 84
2007-04-11 13:10 51°12.952 2°37.565 4.2 357 11.6 102460 84
2007-04-11 13:11 51°12.952 2°37.534 4.3 360 11.6 102460 85
2007-04-11 13:12 51°12.961 2°37.494 5 9 11.5 102450 85
2007-04-11 13:13 51°12.964 2°37.399 2.7 40 11.5 102450 86
2007-04-11 13:14 51°12.916 2°37.317 3.2 270 11.5 102450 86
2007-04-11 13:15 51°12.857 2°37.328 5.3 21 11.7 102450 87
2007-04-11 13:16 51°12.846 2°37.388 5.7 325 11.7 102440 86
2007-04-11 13:17 51°12.879 2°37.454 6.2 326 11.8 102440 85
2007-04-11 13:18 51°12.923 2°37.534 6.5 329 11.8 102440 85
2007-04-11 13:19 51°12.965 2°37.619 6.6 330 11.8 102440 85
2007-04-11 13:20 51°13 2°37.704 6.3 327 11.8 102440 84
2007-04-11 13:21 51°13.024 2°37.721 4.5 329 11.9 102440 84
2007-04-11 13:22 51°13.018 2°37.7 4.7 324 11.9 102450 84
2007-04-11 13:23 51°13.013 2°37.705 5.2 23 11.9 102440 84
2007-04-11 13:24 51°13 2°37.71 6.3 26 12 102440 84
2007-04-11 13:25 51°12.988 2°37.714 5.3 316 12 102440 83
2007-04-11 13:26 51°12.981 2°37.714 5.4 320 12 102440 83
2007-04-11 13:27 51°12.977 2°37.71 5.3 327 12 102440 83
2007-04-11 13:28 51°12.977 2°37.698 5.2 339 12 102430 83
2007-04-11 13:29 51°12.979 2°37.676 5 353 11.9 102430 83
2007-04-11 13:30 51°12.982 2°37.642 5 12 11.8 102430 84
2007-04-11 13:31 51°12.982 2°37.596 4.2 26 11.7 102430 86
2007-04-11 13:32 51°12.978 2°37.543 4.1 34 11.7 102430 87
2007-04-11 13:33 51°12.966 2°37.486 4.3 20 11.6 102430 87
2007-04-11 13:34 51°12.948 2°37.429 2.7 24 11.6 102430 88
2007-04-11 13:35 51°12.923 2°37.38 3.3 29 11.7 102430 89
2007-04-11 13:36 51°12.881 2°37.352 4.6 259 11.7 102420 88
2007-04-11 13:37 51°12.83 2°37.375 6.1 19 11.8 102420 88
2007-04-11 13:38 51°12.796 2°37.436 7.1 25 11.9 102410 88
2007-04-11 13:39 51°12.76 2°37.584 9.2 23 11.9 102400 86
2007-04-11 13:40 51°12.686 2°37.843 10.2 27 11.8 102390 86
2007-04-11 13:41 51°12.584 2°38.14 10.5 318 11.8 102390 85
2007-04-11 13:42 51°12.526 2°38.462 10.4 318 11.9 102390 86
2007-04-11 13:43 51°12.492 2°38.787 11.6 322 12 102390 85
2007-04-11 13:44 51°12.456 2°39.036 8.5 23 12 102400 84
2007-04-11 13:45 51°12.468 2°39.209 8.5 325 12 102400 85
2007-04-11 13:46 51°12.515 2°39.299 8.1 327 12 102410 84
2007-04-11 13:47 51°12.551 2°39.369 6.9 329 12 102400 84
2007-04-11 13:48 51°12.575 2°39.39 6 335 12 102410 84
2007-04-11 13:49 51°12.591 2°39.384 5.6 336 12 102410 84
2007-04-11 13:50 51°12.602 2°39.397 5.5 322 12 102400 84
2007-04-11 13:51 51°12.599 2°39.408 5 24 12 102400 85
2007-04-11 13:52 51°12.588 2°39.413 5.2 19 12.1 102400 85
2007-04-11 13:53 51°12.572 2°39.406 5.8 27 12.1 102400 85
2007-04-11 13:54 51°12.557 2°39.389 5.8 251 12.1 102410 85
2007-04-11 13:55 51°12.54 2°39.367 6.2 257 12.1 102410 85
2007-04-11 13:56 51°12.524 2°39.345 6 259 12.1 102410 84
2007-04-11 13:57 51°12.507 2°39.323 5.9 259 12 102410 84
2007-04-11 13:58 51°12.489 2°39.303 5.3 258 12 102410 84
2007-04-11 13:59 51°12.469 2°39.305 5.5 27 12 102410 84
2007-04-11 14:00 51°12.47 2°39.336 6.4 325 12 102400 84
2007-04-11 14:01 51°12.506 2°39.343 6.7 342 12 102400 83
2007-04-11 14:02 51°12.544 2°39.365 6.1 327 12 102400 83
2007-04-11 14:03 51°12.56 2°39.39 6 333 11.9 102400 84
2007-04-11 14:04 51°12.57 2°39.396 5.6 333 12 102400 85
2007-04-11 14:05 51°12.575 2°39.397 5.3 327 11.9 102400 85
2007-04-11 14:06 51°12.573 2°39.395 5.4 325 11.9 102400 85
2007-04-11 14:07 51°12.567 2°39.389 5.2 27 11.9 102400 86
2007-04-11 14:08 51°12.556 2°39.382 5 22 11.9 102400 86
2007-04-11 14:09 51°12.544 2°39.375 5.2 21 12 102400 86
2007-04-11 14:10 51°12.535 2°39.375 4.6 326 12 102400 86
2007-04-11 14:11 51°12.537 2°39.376 5.1 342 12 102400 86
2007-04-11 14:12 51°12.547 2°39.377 5.4 333 11.9 102400 86
2007-04-11 14:13 51°12.558 2°39.389 5.3 333 11.9 102400 87
2007-04-11 14:14 51°12.565 2°39.393 5 335 11.9 102400 87
2007-04-11 14:15 51°12.568 2°39.387 5 335 12 102400 88
2007-04-11 14:16 51°12.569 2°39.384 4.8 327 11.9 102400 87
2007-04-11 14:17 51°12.566 2°39.387 4.6 322 11.9 102400 87
2007-04-11 14:18 51°12.558 2°39.39 5 318 12 102400 88
2007-04-11 14:19 51°12.546 2°39.386 5.3 20 12 102400 87
2007-04-11 14:20 51°12.532 2°39.378 4.4 24 12 102400 87
2007-04-11 14:21 51°12.529 2°39.406 6 334 12 102400 87
2007-04-11 14:22 51°12.592 2°39.37 5.6 360 11.9 102390 87
2007-04-11 14:23 51°12.679 2°39.102 6.8 352 11.8 102390 87
2007-04-11 14:24 51°12.765 2°38.76 6.6 354 11.6 102390 88
2007-04-11 14:25 51°12.824 2°38.398 5.8 355 11.5 102390 88
2007-04-11 14:26 51°12.877 2°38.03 5.9 350 11.4 102390 89
2007-04-11 14:27 51°12.923 2°37.744 4.1 3 11.4 102390 89
2007-04-11 14:28 51°12.939 2°37.673 3.7 11 11.3 102390 90
2007-04-11 14:29 51°12.945 2°37.65 5 354 11.3 102390 90
2007-04-11 14:30 51°12.989 2°37.686 6.8 337 11.2 102390 91
2007-04-11 14:31 51°13.024 2°37.727 6.1 344 11.3 102390 90
2007-04-11 14:32 51°13.037 2°37.726 5.4 342 11.3 102390 89
2007-04-11 14:33 51°13.044 2°37.727 5.9 330 11.4 102390 89
2007-04-11 14:34 51°13.044 2°37.731 5.3 325 11.5 102390 88
2007-04-11 14:35 51°13.038 2°37.737 5 23 11.6 102390 87
2007-04-11 14:36 51°13.026 2°37.734 4.4 25 11.6 102390 87
2007-04-11 14:37 51°13.013 2°37.719 4.6 252 11.8 102390 87
2007-04-11 14:38 51°12.998 2°37.704 5 260 11.8 102390 86
2007-04-11 14:39 51°12.967 2°37.702 3.3 270 11.8 102380 86
2007-04-11 14:40 51°12.928 2°37.69 3.4 270 11.7 102390 86
2007-04-11 14:41 51°12.9 2°37.675 3.1 268 11.7 102390 86
2007-04-11 14:42 51°12.876 2°37.656 4.4 268 11.6 102390 86
2007-04-11 14:43 51°12.852 2°37.637 4.1 270 11.6 102380 86
2007-04-11 14:44 51°12.831 2°37.616 3.9 268 11.6 102380 86
2007-04-11 14:45 51°12.81 2°37.594 3.8 268 11.6 102380 86
2007-04-11 14:46 51°12.792 2°37.573 3.7 267 11.6 102380 86
2007-04-11 14:47 51°12.773 2°37.55 3.8 265 11.6 102380 86
2007-04-11 14:48 51°12.756 2°37.529 4 263 11.6 102380 86
2007-04-11 14:49 51°12.736 2°37.508 4.1 270 11.7 102380 86
2007-04-11 14:50 51°12.698 2°37.472 3.4 26 11.7 102380 86
2007-04-11 14:51 51°12.674 2°37.389 4.3 31 11.7 102380 85
2007-04-11 14:52 51°12.69 2°37.307 6.5 9 11.8 102380 85
2007-04-11 14:53 51°12.727 2°37.28 6.7 348 11.7 102370 84
2007-04-11 14:54 51°12.759 2°37.303 7 333 11.7 102370 85
2007-04-11 14:55 51°12.793 2°37.35 6.8 330 11.7 102370 84
2007-04-11 14:56 51°12.83 2°37.406 7.5 330 11.7 102370 84
2007-04-11 14:57 51°12.867 2°37.465 7.5 327 11.8 102380 84
2007-04-11 14:58 51°12.901 2°37.514 6.5 330 11.7 102370 84
2007-04-11 14:59 51°12.922 2°37.542 6.2 332 11.7 102370 84
2007-04-11 15:00 51°12.934 2°37.556 6.4 335 11.7 102370 84
2007-04-11 15:01 51°12.941 2°37.561 5.9 339 11.7 102370 84
2007-04-11 15:02 51°12.944 2°37.556 5.4 342 11.7 102370 84
2007-04-11 15:03 51°12.945 2°37.546 6.1 348 11.7 102370 83
2007-04-11 15:04 51°12.943 2°37.531 5.9 352 11.6 102370 83
2007-04-11 15:05 51°12.938 2°37.513 6.1 359 11.5 102370 84
2007-04-11 15:06 51°12.93 2°37.492 4.5 6 11.5 102370 84
2007-04-11 15:07 51°12.92 2°37.472 6 14 11.4 102370 85
2007-04-11 15:08 51°12.909 2°37.453 5.4 21 11.4 102370 85
2007-04-11 15:09 51°12.899 2°37.437 5.1 31 11.5 102370 85
2007-04-11 15:10 51°12.888 2°37.419 5.4 32 11.5 102380 85
2007-04-11 15:11 51°12.877 2°37.402 4.8 35 11.5 102380 85
2007-04-11 15:12 51°12.866 2°37.385 4.9 35 11.5 102380 85
2007-04-11 15:13 51°12.87 2°37.344 5.6 12 11.6 102380 85
2007-04-11 15:14 51°12.902 2°37.321 6.3 348 11.6 102370 85
2007-04-11 15:15 51°12.925 2°37.318 5.4 348 11.5 102370 85
2007-04-11 15:16 51°12.938 2°37.31 5.6 354 11.5 102370 85
2007-04-11 15:17 51°12.946 2°37.298 5.4 360 11.4 102370 85
2007-04-11 15:18 51°12.957 2°37.286 5.6 351 11.4 102370 85
2007-04-11 15:19 51°12.978 2°37.308 6.1 330 11.4 102370 86
2007-04-11 15:20 51°12.979 2°37.37 6.6 317 11.5 102360 86
2007-04-11 15:21 51°12.975 2°37.454 6.7 318 11.6 102370 85
2007-04-11 15:22 51°12.97 2°37.516 6.2 315 11.7 102360 85
2007-04-11 15:23 51°12.963 2°37.539 5.3 320 11.8 102370 84
2007-04-11 15:24 51°12.957 2°37.548 5.2 323 11.8 102360 84
2007-04-11 15:25 51°12.952 2°37.553 5.5 326 11.9 102370 84
2007-04-11 15:26 51°12.946 2°37.553 5.1 322 11.9 102370 84
2007-04-11 15:27 51°12.939 2°37.552 5.4 322 11.9 102360 84
2007-04-11 15:28 51°12.932 2°37.549 5.3 316 11.9 102360 83
2007-04-11 15:29 51°12.924 2°37.544 5.1 25 11.9 102360 83
2007-04-11 15:30 51°12.914 2°37.538 4.9 25 11.9 102360 83
2007-04-11 15:31 51°12.903 2°37.531 5.3 21 11.9 102360 83
2007-04-11 15:32 51°12.892 2°37.527 5.1 21 11.9 102350 84
2007-04-11 15:33 51°12.885 2°37.544 5.5 -999 11.9 102360 84
2007-04-11 15:34 51°12.891 2°37.561 5.4 335 11.9 102350 84
2007-04-11 15:35 51°12.896 2°37.564 5.4 343 11.9 102350 84
2007-04-11 15:36 51°12.9 2°37.559 5.3 345 11.8 102350 84
2007-04-11 15:37 51°12.902 2°37.549 5.3 349 11.7 102350 85
2007-04-11 15:38 51°12.902 2°37.535 5.4 353 11.6 102350 86
2007-04-11 15:39 51°12.9 2°37.521 5.2 358 11.5 102350 86
2007-04-11 15:40 51°12.896 2°37.506 4.6 5 11.4 102350 87
2007-04-11 15:41 51°12.891 2°37.49 6 9 11.4 102350 87
2007-04-11 15:42 51°12.884 2°37.473 5.4 20 11.4 102350 88
2007-04-11 15:43 51°12.876 2°37.458 6.4 24 11.4 102350 88
2007-04-11 15:44 51°12.876 2°37.436 5.8 14 11.4 102350 88
2007-04-11 15:45 51°12.899 2°37.415 6 -999 11.4 102350 87
2007-04-11 15:46 51°12.928 2°37.431 6.7 337 11.4 102340 87
2007-04-11 15:47 51°12.941 2°37.46 6.5 -999 11.5 102340 87
2007-04-11 15:48 51°12.941 2°37.491 6.1 318 11.6 102340 87
2007-04-11 15:49 51°12.936 2°37.521 5.8 316 11.7 102340 86
2007-04-11 15:50 51°12.929 2°37.548 5.6 24 11.7 102340 86
2007-04-11 15:51 51°12.922 2°37.575 6.1 -999 11.8 102340 85
2007-04-11 15:52 51°12.914 2°37.598 5.8 23 11.8 102340 85
2007-04-11 15:53 51°12.905 2°37.612 5.5 23 11.8 102340 85
2007-04-11 15:54 51°12.897 2°37.618 6 284 11.8 102340 86
2007-04-11 15:55 51°12.888 2°37.621 5.5 21 11.8 102340 86
2007-04-11 15:56 51°12.88 2°37.621 5.8 26 11.8 102340 86
2007-04-11 15:57 51°12.873 2°37.629 6.5 23 11.8 102330 86
2007-04-11 15:58 51°12.876 2°37.675 6.3 325 11.8 102330 85
2007-04-11 15:59 51°12.887 2°37.75 7.5 320 11.8 102330 85
2007-04-11 16:00 51°12.895 2°37.864 9.7 324 11.8 102330 84
2007-04-11 16:01 51°12.931 2°38.144 12.6 326 11.8 102320 83
2007-04-11 16:02 51°12.975 2°38.483 12.8 326 11.8 102310 82
2007-04-11 16:03 51°13.017 2°38.812 11.8 325 11.8 102310 82
2007-04-11 16:04 51°13.06 2°39.147 12.7 324 11.9 102310 81
2007-04-11 16:05 51°13.102 2°39.489 12.7 323 11.9 102300 81
2007-04-11 16:06 51°13.14 2°39.82 12.2 323 11.9 102310 81
2007-04-11 16:07 51°13.182 2°40.161 12.5 324 11.9 102300 81
2007-04-11 16:08 51°13.221 2°40.497 12.4 322 11.9 102310 80
2007-04-11 16:09 51°13.261 2°40.828 12.8 323 11.9 102300 80
2007-04-11 16:10 51°13.305 2°41.172 12.5 324 11.9 102300 80
2007-04-11 16:11 51°13.347 2°41.512 13 323 11.9 102300 79
2007-04-11 16:12 51°13.389 2°41.846 12.8 324 12 102300 78
2007-04-11 16:13 51°13.427 2°42.189 12.9 323 12 102300 77
2007-04-11 16:14 51°13.462 2°42.539 12.1 324 12 102300 76
2007-04-11 16:15 51°13.497 2°42.879 13.4 323 12 102300 76
2007-04-11 16:16 51°13.534 2°43.23 12.9 322 12.1 102310 76
2007-04-11 16:17 51°13.57 2°43.576 12.4 323 12.1 102300 76
2007-04-11 16:18 51°13.606 2°43.916 12.8 322 12.1 102300 76
2007-04-11 16:19 51°13.644 2°44.271 12.9 323 12.1 102290 75
2007-04-11 16:20 51°13.694 2°44.618 12.7 323 12.1 102300 75
2007-04-11 16:21 51°13.746 2°44.963 13 321 12.1 102290 75
2007-04-11 16:22 51°13.794 2°45.301 12.7 322 12.1 102290 74
2007-04-11 16:23 51°13.845 2°45.65 12.8 322 12.2 102300 73
2007-04-11 16:24 51°13.894 2°45.986 13 322 12.2 102300 74
2007-04-11 16:25 51°13.943 2°46.325 12.1 324 12.2 102300 74
2007-04-11 16:26 51°13.985 2°46.673 12.2 322 12.2 102300 75
2007-04-11 16:27 51°14.023 2°47.016 12.7 323 12.2 102300 75
2007-04-11 16:28 51°14.06 2°47.361 12.7 322 12.2 102290 75
2007-04-11 16:29 51°14.1 2°47.696 13 322 12.3 102300 75
2007-04-11 16:30 51°14.139 2°48.042 12.3 323 12.2 102290 75
2007-04-11 16:31 51°14.175 2°48.379 12.4 322 12.2 102290 75
2007-04-11 16:32 51°14.213 2°48.727 13.1 321 12.2 102290 75
2007-04-11 16:33 51°14.25 2°49.07 13.3 321 12.2 102290 75
2007-04-11 16:34 51°14.288 2°49.412 12.9 321 12.2 102290 74
2007-04-11 16:35 51°14.325 2°49.755 12.4 322 12.2 102290 74
2007-04-11 16:36 51°14.362 2°50.099 13.3 321 12.2 102290 74
2007-04-11 16:37 51°14.399 2°50.444 13.6 320 12.2 102290 74
2007-04-11 16:38 51°14.435 2°50.788 13.3 321 12.2 102290 74
2007-04-11 16:39 51°14.472 2°51.133 13.7 322 12.1 102280 74
2007-04-11 16:40 51°14.507 2°51.472 13.8 321 12.1 102280 75
2007-04-11 16:41 51°14.545 2°51.822 13.9 320 12.1 102290 75
2007-04-11 16:42 51°14.581 2°52.167 13.2 320 12 102290 75
2007-04-11 16:43 51°14.605 2°52.516 13.2 319 12 102290 75
2007-04-11 16:44 51°14.613 2°52.869 12.6 318 12 102280 75
2007-04-11 16:45 51°14.605 2°53.224 13.2 317 12 102280 76
2007-04-11 16:46 51°14.586 2°53.579 12.5 22 12 102290 76
2007-04-11 16:47 51°14.541 2°53.93 12.6 21 11.9 102290 76
2007-04-11 16:48 51°14.492 2°54.276 11.6 28 11.9 102290 76
2007-04-11 16:49 51°14.442 2°54.626 12.6 25 11.9 102280 77
2007-04-11 16:50 51°14.375 2°54.976 12.1 25 11.9 102290 77
2007-04-11 16:51 51°14.251 2°55.273 8.4 27 11.9 102300 78
2007-04-11 16:52 51°14.092 2°55.436 5.9 26 11.9 102320 78
2007-04-11 16:53 51°13.961 2°55.529 5.1 27 12 102320 78
2007-04-11 16:54 51°13.839 2°55.624 4.1 22 12.1 102320 78
2007-04-11 16:55 51°13.736 2°55.74 3.9 24 12.1 102320 76
2007-04-11 16:56 51°13.668 2°55.861 6.8 244 12.3 102310 73
2007-04-11 16:57 51°13.628 2°55.971 6.5 27 12.6 102310 70
2007-04-11 16:58 51°13.608 2°56.061 4.4 24 12.8 102310 67
2007-04-11 16:59 51°13.603 2°56.093 3.6 250 13 102320 66
2007-04-11 17:00 51°13.601 2°56.098 4.4 253 13.2 102320 65